W7YP Weather Reports


time (UTC)temp
C
wind
direction
speed
KPH
gust
KPH
rain 1hr
cm
rain 24hr
cm
rain mn
cm
humidity
%
barometer
mb
20260508214241 19 253 3.2 11.3 0.00 0.00 0.00 50 1013.4
20260508213745 19 332 0.0 11.3 0.00 0.00 0.00 52 1013.4
20260508213242 20 148 0.0 9.7 0.00 0.00 0.00 51 1013.4
20260508212732 20 140 3.2 9.7 0.00 0.00 0.00 50 1013.4
20260508212232 20 97 0.0 6.4 0.00 0.00 0.00 50 1013.4
20260508211728 20 110 0.0 4.8 0.00 0.00 0.00 51 1013.4
20260508211227 20 333 1.6 4.8 0.00 0.00 0.00 51 1013.4
20260508210728 20 227 1.6 8.0 0.00 0.00 0.00 50 1013.4
20260508210231 19 182 1.6 8.0 0.00 0.00 0.00 51 1013.3
20260508205720 19 349 1.6 8.0 0.00 0.00 0.00 51 1013.4
20260508205218 19 323 4.8 14.5 0.00 0.00 0.00 50 1013.4
20260508204713 19 5 0.0 14.5 0.00 0.00 0.00 52 1013.5
20260508204213 19 30 3.2 9.7 0.00 0.00 0.00 51 1013.5
20260508203713 19 345 1.6 9.7 0.00 0.00 0.00 51 1013.4
20260508203217 19 270 3.2 11.3 0.00 0.00 0.00 51 1013.4
20260508202714 19 309 3.2 17.7 0.00 0.00 0.00 50 1013.4
20260508202215 20 98 4.8 17.7 0.00 0.00 0.00 50 1013.4
20260508201709 20 207 4.8 11.3 0.00 0.00 0.00 49 1013.5
20260508201209 20 213 0.0 12.9 0.00 0.00 0.00 50 1013.4
20260508200709 20 341 3.2 14.5 0.00 0.00 0.00 51 1013.4
20260508200213 20 173 3.2 14.5 0.00 0.00 0.00 52 1013.5
20260508195712 20 205 0.0 9.7 0.00 0.00 0.00 51 1013.5
20260508195206 20 69 3.2 14.5 0.00 0.00 0.00 50 1013.5
20260508194705 20 271 0.0 14.5 0.00 0.00 0.00 50 1013.5
20260508194201 20 182 6.4 14.5 0.00 0.00 0.00 49 1013.5
20260508193701 20 183 0.0 12.9 0.00 0.00 0.00 49 1013.6
20260508193201 20 273 0.0 9.7 0.00 0.00 0.00 50 1013.6
20260508192659 20 169 1.6 19.3 0.00 0.00 0.00 52 1013.5
20260508192157 20 14 1.6 19.3 0.00 0.00 0.00 52 1013.6
20260508191657 19 271 1.6 14.5 0.00 0.00 0.00 52 1013.6
20260508191157 19 309 4.8 14.5 0.00 0.00 0.00 51 1013.7
20260508190913 19 146 1.6 11.3 0.00 0.00 0.00 51 1013.7
20260508190157 19 352 4.8 16.1 0.00 0.00 0.00 54 1013.8
20260508185652 19 179 6.4 16.1 0.00 0.00 0.00 52 1013.9
20260508185147 19 317 1.6 12.9 0.00 0.00 0.00 52 1013.9
20260508184638 19 352 1.6 12.9 0.00 0.00 0.00 55 1014.0
20260508184137 19 310 1.6 11.3 0.00 0.00 0.00 54 1014.0
20260508184126 18 111 3.2 11.3 0.00 0.00 0.00 52 1014.1
20260508183138 18 150 1.6 14.5 0.00 0.00 0.00 55 1014.3
20260508182638 18 352 1.6 16.1 0.00 0.00 0.00 55 1014.3
20260508182355 18 155 6.4 16.1 0.00 0.00 0.00 55 1014.3
20260508181623 18 319 0.0 11.3 0.00 0.00 0.00 55 1014.3
20260508181121 18 117 3.2 14.5 0.00 0.00 0.00 58 1014.3
20260508180618 18 238 1.6 14.5 0.00 0.00 0.00 57 1014.4
20260508180119 18 318 3.2 11.3 0.00 0.00 0.00 59 1014.4
20260508175620 17 311 3.2 11.3 0.00 0.00 0.00 60 1014.5
20260508175119 17 86 0.0 14.5 0.00 0.00 0.00 59 1014.5
20260508174609 17 198 3.2 17.7 0.00 0.00 0.00 57 1014.6
20260508174109 17 155 4.8 17.7 0.00 0.00 0.00 58 1014.7
20260508173613 17 290 1.6 12.9 0.00 0.00 0.00 59 1014.6
20260508173111 17 36 0.0 8.0 0.00 0.00 0.00 62 1014.7
20260508172610 17 329 1.6 8.0 0.00 0.00 0.00 60 1014.8
20260508172111 17 256 1.6 11.3 0.00 0.00 0.00 61 1014.8
20260508171606 16 223 0.0 11.3 0.00 0.00 0.00 61 1014.8
20260508171056 16 163 1.6 9.7 0.00 0.00 0.00 61 1014.9
20260508170556 16 186 0.0 6.4 0.00 0.00 0.00 66 1015.0
20260508170056 16 155 0.0 4.8 0.00 0.00 0.00 68 1014.9
20260508165556 15 153 1.6 4.8 0.00 0.00 0.00 67 1015.0
20260508165056 15 202 0.0 4.8 0.00 0.00 0.00 68 1015.1
20260508164556 15 99 0.0 6.4 0.00 0.00 0.00 67 1015.0
20260508164047 15 114 1.6 6.4 0.00 0.00 0.00 68 1015.3
20260508163806 15 106 0.0 3.2 0.00 0.00 0.00 72 1015.3
20260508163047 14 109 0.0 3.2 0.00 0.00 0.00 70 1015.4
20260508162547 13 108 0.0 4.8 0.00 0.00 0.00 73 1015.4
20260508162049 13 108 1.6 4.8 0.00 0.00 0.00 74 1015.3
20260508161547 13 83 1.6 4.8 0.00 0.00 0.00 74 1015.4
20260508161042 13 77 0.0 6.4 0.00 0.00 0.00 74 1015.5
20260508160533 13 66 0.0 6.4 0.00 0.00 0.00 76 1015.5
20260508160033 12 182 1.6 6.4 0.00 0.00 0.00 76 1015.5
20260508155533 12 126 0.0 4.8 0.00 0.00 0.00 77 1015.6
20260508155028 12 122 0.0 4.8 0.00 0.00 0.00 79 1015.7
20260508154518 11 118 0.0 4.8 0.00 0.00 0.00 80 1015.7
20260508154244 11 115 0.0 3.2 0.00 0.00 0.00 82 1015.7
20260508153509 11 116 0.0 3.2 0.00 0.00 0.00 85 1015.7
20260508153004 10 116 0.0 3.2 0.00 0.00 0.00 83 1015.8
20260508152459 10 113 0.0 4.8 0.00 0.00 0.00 87 1015.8
20260508151953 10 113 1.6 6.4 0.00 0.00 0.00 87 1015.9
20260508151454 9 107 0.0 6.4 0.00 0.00 0.00 91 1016.0
20260508150954 9 99 0.0 4.8 0.00 0.00 0.00 93 1015.9
20260508150455 8 99 0.0 4.8 0.00 0.00 0.00 95 1015.9
20260508145939 8 329 0.0 1.6 0.00 0.00 0.00 96 1015.9
20260508145434 8 329 0.0 0.0 0.00 0.00 0.00 97 1016.0
20260508145411 8 329 0.0 3.2 0.00 0.00 0.00 97 1016.0
20260508144424 8 329 0.0 3.2 0.00 0.00 0.00 98 1016.0
20260508143924 8 329 0.0 3.2 0.00 0.05 0.00 98 1016.0
20260508143424 8 329 0.0 3.2 0.00 0.10 0.00 98 1016.0
20260508142920 8 325 0.0 1.6 0.00 0.13 0.00 98 1016.0
20260508142414 7 325 0.0 1.6 0.00 0.15 0.00 98 1016.0
20260508141910 7 324 0.0 0.0 0.00 0.15 0.00 98 1016.0
20260508141623 7 324 0.0 0.0 0.00 0.18 0.00 98 1016.0
20260508140900 7 324 0.0 0.0 0.00 0.18 0.00 98 1016.0
20260508140621 6 324 0.0 0.0 0.00 0.20 0.00 97 1016.0
20260508135836 6 324 0.0 0.0 0.00 0.20 0.00 97 1016.0
20260508135338 6 324 0.0 0.0 0.00 0.20 0.00 97 1016.0
20260508134830 6 324 0.0 0.0 0.00 0.20 0.00 97 1016.0
20260508134331 6 324 0.0 0.0 0.00 0.20 0.00 97 1016.0
20260508133831 5 324 0.0 0.0 0.00 0.20 0.00 97 1016.0
20260508133333 5 324 0.0 0.0 0.00 0.20 0.00 97 1016.0
20260508132831 5 324 0.0 0.0 0.00 0.20 0.00 96 1015.9
20260508132327 5 324 0.0 0.0 0.00 0.20 0.00 97 1015.9
20260508131826 5 324 0.0 0.0 0.00 0.20 0.00 96 1015.9
20260508131327 5 324 0.0 0.0 0.00 0.20 0.00 96 1015.9
20260508130827 5 324 0.0 0.0 0.00 0.20 0.00 96 1015.9
20260508130317 5 324 0.0 0.0 0.00 0.20 0.00 96 1015.9
20260508125817 5 324 0.0 0.0 0.00 0.20 0.00 96 1015.8
20260508125312 5 324 0.0 0.0 0.00 0.20 0.00 96 1015.8
20260508124758 5 324 0.0 0.0 0.00 0.20 0.00 96 1015.8
20260508124242 5 324 0.0 0.0 0.00 0.20 0.00 96 1015.8
20260508123745 5 324 0.0 0.0 0.00 0.20 0.00 96 1015.8
20260508123238 5 324 0.0 0.0 0.00 0.20 0.00 96 1015.8
20260508122733 5 324 0.0 0.0 0.00 0.20 0.00 96 1015.8
20260508122233 5 324 0.0 0.0 0.00 0.20 0.00 96 1015.7
20260508121733 5 324 0.0 0.0 0.00 0.20 0.00 96 1015.7
20260508121231 5 324 0.0 0.0 0.00 0.20 0.00 96 1015.7
20260508120719 5 324 0.0 0.0 0.00 0.20 0.00 96 1015.8
20260508120213 5 324 0.0 0.0 0.00 0.20 0.00 96 1015.7
20260508115703 5 324 0.0 0.0 0.00 0.20 0.00 95 1015.7
20260508115159 5 324 0.0 0.0 0.00 0.20 0.00 95 1015.7
20260508114658 5 324 0.0 0.0 0.00 0.20 0.00 96 1015.7
20260508114646 5 324 0.0 0.0 0.00 0.20 0.00 96 1015.6
20260508113659 5 324 0.0 0.0 0.00 0.20 0.00 95 1015.6
20260508113654 5 324 0.0 0.0 0.00 0.20 0.00 95 1015.6
20260508112645 5 324 0.0 0.0 0.00 0.20 0.00 95 1015.6
20260508112413 5 324 0.0 0.0 0.00 0.20 0.00 95 1015.6
20260508111634 5 324 0.0 0.0 0.00 0.20 0.00 95 1015.6
20260508111132 5 324 0.0 0.0 0.00 0.20 0.00 95 1015.5
20260508110630 5 324 0.0 0.0 0.00 0.20 0.00 95 1015.6
20260508110130 5 324 0.0 0.0 0.00 0.20 0.00 95 1015.5
20260508105633 5 324 0.0 0.0 0.00 0.20 0.00 95 1015.6
20260508105125 5 324 0.0 0.0 0.00 0.20 0.00 95 1015.5
20260508104621 5 324 0.0 0.0 0.00 0.20 0.00 95 1015.5
20260508104123 5 324 0.0 0.0 0.00 0.20 0.00 95 1015.5
20260508103844 6 324 0.0 0.0 0.00 0.20 0.00 95 1015.5
20260508103121 6 324 0.0 0.0 0.00 0.20 0.00 95 1015.5
20260508102621 6 324 0.0 0.0 0.00 0.20 0.00 95 1015.5
20260508102121 6 324 0.0 0.0 0.00 0.20 0.00 95 1015.5
20260508101612 6 324 0.0 0.0 0.00 0.20 0.00 95 1015.4
20260508101108 6 324 0.0 0.0 0.00 0.20 0.00 95 1015.4
20260508100557 6 324 0.0 0.0 0.00 0.20 0.00 95 1015.4
20260508100057 6 324 0.0 0.0 0.00 0.20 0.00 95 1015.4
20260508095551 6 324 0.0 0.0 0.00 0.20 0.00 95 1015.4
20260508095052 6 324 0.0 0.0 0.00 0.20 0.00 95 1015.4
20260508094542 6 324 0.0 0.0 0.00 0.20 0.00 95 1015.3
20260508094305 6 324 0.0 0.0 0.00 0.20 0.00 95 1015.3
20260508093537 6 324 0.0 0.0 0.00 0.20 0.00 95 1015.3
20260508093032 6 324 0.0 0.0 0.00 0.20 0.00 95 1015.1
20260508092752 6 324 0.0 0.0 0.00 0.20 0.00 95 1015.1
20260508092033 6 324 0.0 0.0 0.00 0.20 0.00 95 1015.1
20260508092019 6 324 0.0 0.0 0.00 0.20 0.00 95 1015.1
20260508091033 7 324 0.0 0.0 0.00 0.20 0.00 95 1015.0
20260508090524 7 324 0.0 0.0 0.00 0.20 0.00 95 1015.1
20260508090243 7 324 0.0 0.0 0.00 0.20 0.00 95 1015.1
20260508085519 7 324 0.0 0.0 0.00 0.20 0.00 95 1015.1
20260508085019 7 324 0.0 0.0 0.00 0.20 0.00 95 1015.1
20260508084519 7 324 0.0 1.6 0.00 0.20 0.00 95 1015.1
20260508084019 7 324 0.0 1.6 0.00 0.20 0.00 95 1015.3
20260508084001 7 324 0.0 1.6 0.00 0.20 0.00 95 1015.3
20260508083018 7 324 0.0 3.2 0.00 0.23 0.00 95 1015.1
20260508082736 7 323 0.0 3.2 0.00 0.25 0.00 95 1015.1
20260508082010 7 324 0.0 0.0 0.00 0.30 0.00 95 1015.1
20260508081455 7 324 0.0 0.0 0.00 0.36 0.00 95 1015.1
20260508080953 7 324 0.0 0.0 0.00 0.36 0.00 95 1015.0
20260508080709 7 324 0.0 0.0 0.00 0.38 0.00 95 1015.1
20260508075936 7 324 0.0 0.0 0.00 0.41 0.00 95 1015.0
20260508075431 7 324 0.0 0.0 0.00 0.41 0.00 95 1015.0
20260508074931 7 324 0.0 0.0 0.00 0.41 0.00 95 1015.0
20260508074431 7 324 0.0 0.0 0.00 0.46 0.00 95 1015.0
20260508073931 7 324 0.0 0.0 0.00 0.48 0.00 95 1015.0
20260508073644 7 324 0.0 0.0 0.00 0.51 0.00 95 1015.0
20260508072924 7 324 0.0 0.0 0.00 0.51 0.00 95 1014.9
20260508072422 7 324 0.0 0.0 0.00 0.58 0.00 94 1015.0
20260508071916 7 324 0.0 0.0 0.00 0.71 0.00 94 1015.0
20260508071407 7 324 0.0 0.0 0.00 0.89 0.00 94 1015.0
20260508070847 7 324 0.0 0.0 0.00 0.89 0.00 94 1014.9
20260508070337 7 324 0.0 0.0 0.00 0.89 0.00 94 1014.9
20260508065837 7 324 0.0 0.0 0.00 0.89 0.00 94 1014.9
20260508065321 7 324 0.0 0.0 0.00 0.89 0.00 94 1014.9
20260508064819 8 324 0.0 0.0 0.00 0.89 0.00 94 1014.8
20260508064316 8 324 0.0 0.0 0.00 0.89 0.00 94 1014.8
20260508063817 8 324 0.0 0.0 0.00 0.89 0.00 93 1014.9
20260508063312 8 324 0.0 0.0 0.00 0.89 0.00 94 1014.7
20260508062810 8 324 0.0 0.0 0.00 0.89 0.00 93 1014.8
20260508062306 8 324 0.0 0.0 0.00 0.89 0.00 94 1014.9
20260508062246 8 324 0.0 0.0 0.00 0.89 0.00 93 1014.8
20260508061247 8 324 0.0 0.0 0.00 0.89 0.00 93 1014.7
20260508060743 8 324 0.0 0.0 0.00 0.89 0.00 93 1014.7
20260508060244 8 324 0.0 3.2 0.00 0.89 0.00 93 1014.6
20260508055743 8 324 0.0 3.2 0.00 0.89 0.89 93 1014.7
20260508055228 8 324 0.0 3.2 0.00 0.89 0.89 93 1014.7
20260508054728 8 324 0.0 4.8 0.00 0.89 0.89 93 1014.7
20260508054226 8 324 1.6 4.8 0.00 0.89 0.89 93 1014.5
20260508053932 8 329 0.0 0.0 0.00 0.89 0.89 93 1014.6
20260508053643 8 329 0.0 3.2 0.00 0.89 0.89 92 1014.6
20260508052924 8 329 1.6 3.2 0.00 0.89 0.89 92 1014.5
20260508052201 8 329 0.0 1.6 0.00 0.89 0.89 92 1014.5
20260508051646 8 329 0.0 4.8 0.00 0.89 0.89 92 1014.5
20260508051145 8 329 3.2 4.8 0.00 0.89 0.89 92 1014.6
20260508050643 8 329 0.0 4.8 0.00 0.89 0.89 92 1014.5
20260508050144 8 329 0.0 4.8 0.00 0.89 0.89 91 1014.5
20260508045644 9 329 0.0 0.0 0.00 0.89 0.89 91 1014.4
20260508045147 9 329 0.0 0.0 0.00 0.89 0.89 91 1014.1
20260508044629 9 329 0.0 0.0 0.00 0.89 0.89 91 1014.1
20260508044129 9 329 0.0 0.0 0.00 0.89 0.89 91 1014.0
20260508043630 9 329 0.0 1.6 0.00 0.89 0.89 90 1014.0
20260508043349 9 329 0.0 1.6 0.00 0.89 0.89 90 1014.0
20260508042613 10 329 0.0 0.0 0.00 0.91 0.89 90 1014.0
20260508042329 10 329 0.0 0.0 0.00 0.94 0.89 90 1013.9
20260508041609 10 329 0.0 0.0 0.00 0.94 0.89 90 1013.9
20260508041106 10 329 0.0 0.0 0.00 0.94 0.89 90 1013.8
20260508040605 10 329 0.0 0.0 0.00 0.94 0.89 90 1014.0
20260508040106 10 329 0.0 0.0 0.00 0.94 0.89 89 1013.9
20260508035601 10 329 0.0 0.0 0.00 0.94 0.89 89 1013.9
20260508035314 10 329 0.0 1.6 0.00 0.94 0.89 89 1013.9
20260508034550 10 329 0.0 1.6 0.00 0.94 0.89 89 1013.9
20260508034050 10 329 0.0 0.0 0.00 0.94 0.89 88 1013.8
20260508033543 10 329 0.0 0.0 0.00 0.94 0.89 88 1013.8
20260508033041 10 329 0.0 0.0 0.00 0.94 0.89 88 1013.7
20260508032759 10 329 0.0 0.0 0.00 0.94 0.89 87 1013.6
20260508032037 11 329 0.0 0.0 0.00 0.94 0.89 86 1013.6
20260508031536 11 329 0.0 3.2 0.00 0.94 0.89 86 1013.6
20260508031026 11 329 0.0 4.8 0.00 0.94 0.89 85 1013.5
20260508030527 11 329 0.0 4.8 0.00 0.94 0.89 84 1013.4
20260508030011 12 329 0.0 3.2 0.00 0.94 0.89 82 1013.4
20260508025511 12 329 0.0 0.0 0.00 0.94 0.89 81 1013.4
20260508025007 12 329 0.0 0.0 0.00 0.94 0.89 80 1013.4
20260508024502 12 329 0.0 0.0 0.00 0.94 0.89 80 1013.3
20260508023957 13 329 0.0 0.0 0.00 0.94 0.89 79 1013.1
20260508023452 13 329 0.0 0.0 0.00 0.94 0.89 78 1013.1
20260508022952 13 329 0.0 0.0 0.00 0.94 0.89 76 1013.1
20260508022447 14 329 0.0 1.6 0.00 0.94 0.89 74 1013.1
20260508021947 15 329 0.0 1.6 0.00 0.94 0.89 72 1013.0
20260508021929 15 329 0.0 0.0 0.00 0.94 0.89 69 1013.0
20260508020938 16 329 0.0 0.0 0.00 0.94 0.89 68 1013.0
20260508020438 16 329 0.0 0.0 0.00 0.94 0.89 67 1013.0
20260508015938 16 329 0.0 1.6 0.00 0.94 0.89 64 1013.0
20260508015922 17 329 0.0 1.6 0.00 0.94 0.89 64 1012.9
20260508014923 17 329 0.0 1.6 0.00 0.94 0.89 59 1012.9
20260508014426 17 331 0.0 4.8 0.00 0.94 0.89 60 1013.0
20260508013921 17 331 0.0 4.8 0.00 0.94 0.89 58 1013.0
20260508013416 17 163 0.0 4.8 0.00 0.94 0.89 56 1012.8
20260508012911 17 291 0.0 4.8 0.00 0.94 0.89 57 1012.9
20260508012406 17 290 0.0 4.8 0.00 0.94 0.89 57 1012.8
20260508011905 17 277 0.0 4.8 0.00 0.94 0.89 58 1012.8
20260508011405 17 277 1.6 4.8 0.00 0.94 0.89 57 1012.8
20260508010904 17 306 0.0 8.0 0.00 0.94 0.89 59 1012.8
20260508010405 17 307 3.2 8.0 0.00 0.94 0.89 58 1012.9
20260508005855 17 174 0.0 11.3 0.00 0.94 0.89 57 1012.8
20260508005350 17 211 1.6 11.3 0.00 0.94 0.89 56 1012.8
20260508004845 17 205 1.6 16.1 0.00 0.94 0.89 56 1012.9
20260508004348 17 349 3.2 16.1 0.00 0.94 0.89 54 1012.9
20260508003840 18 344 1.6 14.5 0.00 0.94 0.89 54 1012.8
20260508003341 18 5 0.0 14.5 0.00 0.94 0.89 55 1012.9
20260508002840 18 9 1.6 14.5 0.00 0.94 0.89 55 1013.0
20260508002340 18 298 3.2 14.5 0.00 0.94 0.89 56 1013.0
20260508001830 18 281 3.2 14.5 0.00 0.94 0.89 55 1013.0
20260508001325 18 242 1.6 12.9 0.00 0.94 0.89 56 1013.0
20260508000825 18 11 1.6 12.9 0.00 0.94 0.89 56 1013.0
20260508000324 18 313 1.6 16.1 0.00 0.94 0.89 55 1013.1
20260507235820 18 236 3.2 17.7 0.00 0.94 0.89 55 1012.9
20260507235311 18 25 3.2 17.7 0.00 0.94 0.89 53 1013.1
20260507234811 18 352 3.2 12.9 0.00 0.94 0.89 53 1013.1
20260507234312 18 327 3.2 17.7 0.00 0.94 0.89 53 1013.0
20260507233812 18 352 1.6 17.7 0.00 0.94 0.89 52 1013.1
20260507233306 18 237 3.2 9.7 0.00 0.94 0.89 51 1013.0
20260507232801 18 334 0.0 12.9 0.00 0.94 0.89 52 1013.1
20260507232301 18 55 3.2 12.9 0.00 0.94 0.89 51 1013.1
20260507232020 18 352 1.6 16.1 0.00 0.94 0.89 51 1013.3
20260507231528 18 32 6.4 17.7 0.00 0.94 0.89 49 1013.0
20260507230802 18 288 3.2 17.7 0.00 0.94 0.89 51 1013.1
20260507230605 19 0 0.0 11.3 0.00 0.94 0.89 51 1013.3
20260507230504 19 182 3.2 12.9 0.00 0.94 0.89 49 1013.4
20260507225741 19 180 1.6 12.9 0.00 0.94 0.89 50 1013.5
20260507224753 19 294 3.2 12.9 0.00 0.94 0.89 52 1013.5
20260507224253 19 238 1.6 16.1 0.00 0.94 0.89 47 1013.5
20260507223753 19 223 3.2 16.1 0.00 0.94 0.89 49 1013.6
20260507223248 19 306 1.6 8.0 0.00 0.94 0.89 51 1013.6
20260507222739 18 323 1.6 4.8 0.00 0.94 0.89 52 1013.5
20260507222228 18 313 0.0 14.5 0.00 0.94 0.89 52 1013.6
20260507221728 18 167 1.6 14.5 0.00 0.94 0.89 52 1013.7
20260507221232 18 148 3.2 19.3 0.00 0.94 0.89 52 1013.8
20260507220729 18 98 4.8 19.3 0.00 0.94 0.89 55 1013.7
20260507220230 18 352 0.0 11.3 0.00 0.94 0.89 54 1013.8
20260507215725 18 182 3.2 9.7 0.00 0.94 0.89 55 1013.7
20260507215224 18 12 1.6 8.0 0.00 0.94 0.89 57 1013.8